Zurück zum Katalog

COSMOS 1275 DEB

AktivPO
NORAD 12744·DEBRIS·🇷🇺 Russia

Gestartet Jun 4, 1981 von Plesetsk Cosmodrome

Loading…

Nächste Überflüge (nächste 24 Stunden)

TLE

AktuellSource: Space-Track

Epoche: Sep 14, 2026, 08:44 UTC

1 12744U 81053CM  26257.36427841  .00003324  00000-0  12175-2 0  9992
2 12744  82.9305  27.7149 0019872 195.3682 164.6905 14.32538539302883

Verfolge COSMOS 1275 DEB in Echtzeit mit AllMySat

Download on the App Store